Wind_Speed
5 5 6 6 6 6 5 4 4 3 3 3 4 4 5 6 6 7 7 8 8 9 9 9 9 8 7 7 7 7 7 7 7 6 6 6 5 5 4 3 2 1 1
7 7 7 8 7 7 6 6 6 5 5 5 5 5 6 6 7 7 8 8 8 9 9 9 9 9 8 8 8 7 7 7 7 7 6 6 5 5 4 2 2 1 1
8 8 9 9 8 7 7 7 7 7 7 6 7 7 7 7 8 8 9 9 9 9 9 9 9 9 9 9 8 8 7 7 7 7 6 5 5 4 4 3 2 2 1
9 9 10 10 9 9 9 8 8 8 8 8 9 9 9 9 9 10 10 10 10 10 10 10 10 10 10 9 9 8 7 7 7 7 6 5 5 5 4 3 3 2 2
11 11 11 10 10 9 9 9 9 10 10 10 10 10 11 11 11 11 11 11 11 11 11 11 11 10 10 10 9 9 8 8 7 7 7 6 5 5 5 4 3 3 2
13 12 12 11 11 10 10 10 10 11 11 11 12 12 12 12 12 13 13 13 13 13 13 12 12 11 10 10 10 10 9 8 8 8 7 7 6 6 5 4 4 3 3
14 13 13 12 11 11 11 11 11 12 12 13 13 13 13 13 14 14 14 14 14 14 14 14 13 12 12 11 11 11 10 9 9 8 8 8 7 7 6 5 4 4 3
14 14 14 13 12 12 12 12 13 13 14 14 15 15 15 15 15 15 15 16 16 16 16 15 14 14 13 12 12 12 11 10 10 9 8 8 8 7 6 5 5 5 4
15 15 14 13 13 13 13 13 14 14 15 15 16 16 16 16 16 16 17 17 18 18 18 17 16 16 15 14 13 13 13 12 11 10 10 9 9 9 8 7 7 6 6
15 14 14 14 14 14 14 14 15 16 16 16 17 17 18 18 18 18 19 19 20 20 19 19 18 17 17 16 15 14 14 14 13 12 11 11 11 10 10 9 9 8 8
16 16 15 14 15 15 15 16 16 16 17 17 18 18 19 20 20 20 20 20 21 21 21 20 20 20 19 19 17 16 16 15 15 14 13 13 13 12 12 11 10 10 9
16 16 16 15 15 16 16 17 17 17 17 18 18 19 20 20 20 21 21 21 21 22 22 22 22 21 21 21 19 18 17 17 16 16 15 15 14 14 13 12 12 11 11
17 16 16 16 16 17 17 18 18 18 18 18 19 20 20 19 20 21 22 22 22 22 23 23 23 23 22 22 21 20 19 19 18 17 17 17 16 16 15 15 14 13 12
17 17 17 18 18 18 18 18 18 19 19 19 20 20 21 21 21 22 23 23 24 24 24 24 23 24 23 22 22 21 21 21 20 20 19 18 18 18 17 16 15 15 14
17 18 18 18 18 18 18 18 18 19 19 19 20 21 21 21 22 23 24 24 25 25 26 26 25 25 25 24 23 22 22 22 23 22 21 20 20 19 18 18 17 16 16
17 18 19 19 19 19 19 19 20 20 20 21 21 22 22 22 23 23 24 25 26 26 26 27 26 27 27 26 26 25 24 23 23 23 23 21 20 20 19 19 18 18 17
19 19 20 20 19 18 19 19 20 21 21 21 21 22 23 23 23 23 24 25 25 26 26 27 27 27 28 27 27 26 26 25 24 24 24 23 22 21 21 20 20 19 19
21 20 21 20 20 20 20 20 20 21 21 21 22 23 23 24 24 25 25 25 26 26 26 27 27 26 27 27 27 26 26 27 26 25 25 25 23 22 22 22 21 21 20
21 20 20 20 21 21 21 20 20 21 21 22 22 23 24 24 26 26 26 26 26 26 26 26 26 26 27 28 27 27 26 26 26 25 26 26 24 24 24 23 22 21 21
22 22 21 20 20 21 21 20 20 21 21 22 23 24 25 25 25 25 25 25 26 25 25 25 25 26 27 27 26 26 26 26 26 26 26 26 26 25 25 24 23 23 22
23 22 22 21 21 21 21 21 21 22 23 23 24 25 25 25 25 26 25 25 25 25 26 26 26 26 26 26 26 26 26 26 26 26 26 26 25 25 25 25 24 24 23
23 23 21 22 21 21 21 22 23 23 24 24 24 24 24 25 25 25 25 25 25 25 25 24 25 25 26 25 26 26 26 27 27 26 26 25 26 26 26 25 25 24 24
24 24 22 22 22 22 22 22 23 24 24 24 25 26 26 26 25 25 25 25 25 24 24 25 25 25 25 26 26 26 27 28 28 27 26 26 26 26 26 25 24 24 24
24 24 23 23 24 24 23 24 24 24 25 26 26 27 27 26 26 25 24 24 24 25 25 26 25 26 26 26 26 27 27 27 27 26 26 26 25 25 25 24 24 24 24
24 23 23 24 25 25 25 25 25 26 26 26 27 27 28 27 27 26 25 25 25 25 25 26 26 27 27 27 27 27 27 28 28 27 26 26 26 26 25 24 24 24 25
24 25 26 26 26 26 25 25 26 27 27 27 27 28 28 27 27 27 26 26 26 26 25 25 25 26 27 27 27 27 27 27 27 27 26 27 27 26 26 26 25 25 26
Wind_Direction
306 307 306 305 305 307 309 313 316 318 319 325 326 326 327 327 328 329 329 330 332 334 335 337 338 337 336 336 335 336 336 336 335 337 337 335 332 330 331 329 314 284 241
296 292 292 292 294 297 299 298 300 301 299 301 305 307 307 310 314 317 319 319 320 323 327 328 331 331 330 330 330 331 332 331 331 332 332 333 329 326 324 320 307 275 251
291 287 285 287 288 292 294 293 296 297 295 293 294 295 297 299 302 305 308 309 310 314 319 321 323 324 324 323 323 325 326 325 325 326 324 326 329 321 314 309 300 287 278
288 287 284 284 287 290 292 292 291 291 291 290 290 290 291 292 294 295 297 300 302 306 312 315 317 318 318 318 317 318 318 318 321 322 318 316 320 318 310 303 295 292 290
287 283 282 282 284 286 289 291 290 289 289 287 287 288 289 289 291 292 293 295 298 300 305 308 310 312 311 311 310 310 311 312 312 315 313 313 312 312 310 302 292 292 291
284 279 276 279 280 283 287 288 290 290 290 287 285 286 288 288 289 290 291 292 293 295 298 301 302 302 303 303 303 303 304 306 308 307 304 305 309 309 308 301 292 290 291
278 275 272 275 278 279 283 285 287 289 290 289 287 286 286 287 287 287 288 288 289 290 293 295 296 295 294 296 296 296 297 299 301 302 301 301 304 303 302 296 292 291 287
274 272 272 272 273 276 279 281 283 286 288 288 287 286 284 284 286 285 286 287 287 287 288 290 290 290 290 290 292 292 293 293 293 293 296 297 297 297 292 285 285 284 279
272 272 269 269 272 275 278 280 282 284 284 284 285 283 282 282 282 283 283 284 285 285 284 285 286 285 284 285 286 287 288 288 288 288 289 292 292 291 285 279 281 279 276
271 272 269 269 271 274 279 281 282 285 284 282 283 283 282 281 280 280 281 281 281 281 282 282 282 282 279 279 280 281 281 281 283 283 284 286 286 284 280 276 275 274 274
270 268 269 272 272 273 277 279 282 285 282 281 282 283 282 281 279 279 279 278 278 278 278 279 279 279 277 276 275 276 274 274 276 278 278 280 281 277 275 275 270 268 269
266 266 268 269 272 273 275 277 280 283 281 282 283 283 282 280 279 278 277 276 276 277 277 276 276 278 276 273 273 274 272 271 271 273 274 274 274 273 272 271 269 266 265
263 264 266 266 268 271 274 275 277 280 280 281 281 282 282 280 277 277 276 274 273 274 275 275 275 275 274 272 273 271 269 268 267 270 273 272 269 269 268 267 267 267 266
265 263 266 268 268 270 272 275 277 279 281 283 281 281 281 279 278 278 277 273 273 273 273 273 273 273 273 272 271 271 268 266 264 266 269 271 268 265 264 265 268 266 267
268 267 268 268 271 270 271 278 280 279 279 283 284 282 281 280 277 278 278 276 273 272 272 270 269 269 269 269 268 269 269 265 263 263 265 267 267 266 264 264 267 264 263
269 269 269 269 273 272 273 277 279 280 282 283 285 284 281 280 280 279 278 278 276 274 274 270 268 268 268 267 267 267 268 263 262 262 263 265 265 264 264 265 264 265 264
268 270 271 272 275 276 278 280 283 284 284 282 282 283 281 279 280 280 279 279 278 275 272 271 268 266 266 267 265 264 264 262 259 260 260 260 261 260 261 262 262 265 263
269 271 273 274 277 278 279 280 282 283 283 283 283 283 282 279 279 281 280 278 277 275 273 269 267 266 265 265 264 264 264 262 260 258 258 258 258 259 258 260 261 264 265
268 269 272 274 277 277 278 279 281 282 282 283 283 284 283 281 281 280 279 278 276 275 273 269 265 264 264 263 262 262 261 261 259 257 256 256 256 256 257 259 260 263 264
268 269 271 273 276 276 276 277 280 281 281 282 284 285 284 281 281 280 278 278 275 272 272 269 268 265 263 260 258 258 258 259 258 258 257 256 254 254 255 256 258 261 262
270 270 267 270 273 276 278 279 281 282 282 282 283 284 283 281 281 278 277 275 274 271 270 267 265 265 261 258 256 256 257 257 257 257 255 255 254 252 253 256 257 259 259
270 270 269 270 274 277 278 279 280 283 283 283 284 283 283 284 283 281 276 274 273 270 268 265 263 263 260 257 255 256 257 256 256 256 256 255 254 254 255 257 256 258 258
273 271 270 271 274 276 278 280 282 282 283 284 284 283 283 284 283 280 277 273 270 269 267 264 263 262 260 258 255 255 254 255 255 256 254 254 254 255 254 255 256 255 256
273 273 272 273 274 274 276 279 281 282 283 285 285 284 285 284 283 280 275 274 273 270 268 265 263 262 260 258 255 254 254 253 254 256 253 252 252 253 253 255 255 254 255
270 273 275 275 274 274 275 277 280 281 282 283 284 284 285 283 280 279 276 274 271 270 268 265 262 260 260 258 256 255 255 253 254 254 253 251 251 253 253 254 255 255 255
271 276 276 277 276 273 275 277 279 281 281 282 282 283 284 282 278 277 276 275 273 271 270 267 263 261 259 258 256 255 254 253 252 252 252 252 253 253 253 254 255 256 257
Height
5905 5904 5905 5905 5904 5904 5903 5904 5904 5904 5904 5904 5904 5904 5905 5905 5905 5905 5905 5906 5906 5905 5905 5905 5904 5904 5903 5903 5902 5901 5901 5900 5900 5899 5899 5898 5897 5897 5896 5896 5896 5896 5896
5904 5904 5904 5904 5903 5903 5903 5903 5903 5903 5903 5903 5904 5904 5904 5904 5904 5905 5905 5905 5905 5905 5905 5904 5904 5904 5903 5902 5902 5901 5901 5900 5900 5899 5898 5898 5897 5897 5897 5896 5896 5896 5896
5903 5903 5903 5902 5902 5902 5901 5901 5901 5901 5901 5902 5902 5903 5903 5903 5904 5904 5904 5904 5904 5904 5904 5904 5904 5903 5903 5902 5901 5901 5900 5900 5899 5899 5898 5898 5897 5897 5897 5896 5896 5896 5896
5901 5902 5902 5901 5901 5900 5900 5900 5900 5900 5900 5901 5901 5901 5902 5902 5902 5902 5903 5903 5903 5903 5903 5903 5903 5902 5902 5902 5901 5901 5900 5900 5899 5898 5898 5897 5897 5897 5896 5896 5896 5896 5895
5900 5900 5900 5899 5899 5898 5898 5898 5898 5898 5899 5899 5899 5900 5900 5900 5900 5901 5901 5901 5901 5902 5902 5902 5901 5901 5901 5901 5900 5900 5899 5899 5898 5898 5897 5897 5897 5896 5896 5895 5895 5895 5895
5898 5898 5898 5898 5897 5897 5897 5897 5897 5897 5897 5897 5897 5897 5898 5898 5898 5898 5899 5899 5899 5900 5900 5900 5900 5900 5899 5899 5899 5899 5898 5898 5898 5897 5897 5896 5896 5895 5895 5895 5894 5894 5894
5896 5896 5896 5896 5895 5895 5895 5895 5895 5895 5895 5895 5895 5895 5896 5896 5896 5896 5896 5896 5897 5897 5898 5898 5898 5898 5898 5897 5897 5897 5897 5896 5896 5896 5895 5895 5894 5894 5894 5893 5893 5893 5893
5893 5893 5893 5894 5893 5893 5893 5893 5893 5893 5893 5893 5893 5893 5893 5893 5893 5894 5894 5894 5894 5894 5895 5895 5895 5895 5895 5895 5895 5895 5895 5894 5894 5894 5894 5894 5893 5893 5892 5892 5892 5892 5892
5891 5891 5891 5891 5891 5891 5891 5891 5891 5890 5890 5890 5890 5890 5890 5890 5890 5890 5891 5891 5891 5891 5891 5892 5892 5892 5893 5893 5893 5892 5892 5892 5892 5892 5892 5892 5891 5891 5891 5891 5891 5891 5891
5888 5888 5888 5888 5888 5888 5888 5888 5888 5888 5888 5887 5887 5887 5887 5887 5887 5887 5887 5887 5887 5887 5888 5888 5888 5888 5889 5889 5890 5890 5889 5889 5889 5889 5889 5889 5889 5889 5889 5889 5889 5889 5889
5885 5885 5885 5885 5885 5885 5885 5885 5885 5884 5884 5884 5884 5884 5884 5884 5883 5883 5883 5883 5884 5884 5884 5884 5884 5885 5885 5886 5886 5886 5886 5886 5886 5886 5886 5886 5886 5886 5886 5886 5886 5887 5887
5882 5882 5882 5882 5882 5882 5882 5882 5881 5881 5881 5881 5880 5880 5879 5879 5879 5879 5879 5879 5879 5880 5880 5880 5880 5881 5881 5881 5882 5882 5883 5883 5883 5883 5883 5883 5883 5883 5883 5883 5884 5884 5885
5878 5879 5879 5879 5879 5879 5879 5878 5878 5877 5877 5877 5877 5876 5875 5874 5874 5875 5875 5875 5875 5875 5875 5875 5876 5876 5876 5877 5877 5878 5879 5879 5879 5879 5879 5880 5880 5880 5880 5880 5881 5881 5882
5875 5875 5875 5875 5874 5875 5874 5874 5874 5873 5873 5872 5872 5872 5871 5871 5870 5870 5870 5870 5870 5870 5871 5871 5871 5872 5872 5872 5873 5873 5874 5874 5875 5875 5876 5876 5876 5876 5876 5877 5877 5878 5878
5871 5871 5871 5871 5871 5871 5870 5870 5869 5868 5868 5868 5867 5867 5867 5866 5866 5865 5865 5865 5865 5865 5865 5866 5866 5866 5867 5867 5868 5868 5869 5869 5870 5871 5871 5872 5872 5872 5872 5873 5873 5874 5874
5867 5867 5867 5867 5866 5866 5866 5865 5865 5864 5864 5863 5863 5862 5862 5861 5861 5860 5860 5860 5860 5860 5860 5860 5860 5861 5861 5861 5862 5863 5863 5864 5864 5865 5867 5867 5868 5868 5868 5869 5869 5870 5870
5863 5864 5864 5863 5862 5862 5862 5861 5860 5860 5859 5859 5858 5857 5857 5856 5856 5855 5855 5854 5854 5854 5854 5854 5854 5854 5855 5855 5856 5856 5857 5858 5859 5860 5861 5862 5863 5864 5864 5864 5865 5866 5866
5859 5860 5859 5859 5858 5857 5857 5857 5856 5855 5854 5854 5853 5852 5851 5851 5850 5849 5849 5849 5848 5848 5847 5848 5848 5848 5849 5849 5850 5851 5852 5853 5853 5854 5855 5857 5857 5858 5859 5860 5860 5861 5861
5855 5855 5855 5855 5854 5853 5852 5852 5851 5850 5849 5849 5848 5847 5846 5845 5845 5844 5843 5842 5842 5842 5842 5842 5842 5842 5843 5843 5844 5845 5846 5847 5848 5849 5850 5851 5852 5853 5854 5854 5855 5856 5856
5851 5851 5851 5850 5849 5848 5847 5847 5846 5845 5844 5843 5843 5841 5841 5840 5839 5838 5837 5836 5835 5835 5835 5835 5835 5836 5837 5837 5838 5839 5840 5841 5842 5843 5844 5845 5846 5847 5848 5849 5850 5851 5851
5846 5845 5845 5845 5844 5843 5842 5841 5841 5840 5839 5838 5837 5836 5834 5834 5832 5831 5831 5830 5829 5829 5829 5829 5829 5829 5830 5831 5832 5833 5834 5834 5836 5837 5838 5839 5840 5841 5842 5843 5844 5845 5845
5841 5840 5839 5839 5838 5838 5837 5836 5836 5834 5833 5832 5831 5830 5828 5827 5826 5825 5824 5823 5823 5822 5822 5822 5822 5823 5823 5824 5825 5826 5827 5829 5830 5831 5832 5833 5834 5835 5836 5837 5838 5839 5840
5835 5834 5834 5834 5833 5833 5832 5831 5830 5829 5828 5826 5825 5824 5822 5821 5819 5818 5817 5816 5816 5816 5816 5816 5816 5816 5816 5817 5818 5820 5821 5823 5824 5825 5826 5827 5828 5829 5831 5831 5832 5833 5834
5830 5829 5829 5828 5828 5827 5826 5825 5824 5823 5821 5820 5819 5817 5816 5814 5812 5811 5810 5810 5809 5809 5809 5809 5809 5809 5810 5810 5811 5813 5814 5816 5817 5819 5820 5821 5822 5823 5824 5825 5826 5827 5828
5823 5823 5823 5822 5822 5820 5819 5818 5818 5816 5815 5813 5812 5811 5809 5807 5806 5805 5804 5803 5803 5803 5802 5802 5803 5803 5803 5804 5805 5806 5807 5809 5810 5812 5813 5815 5816 5817 5818 5819 5820 5820 5821
5817 5818 5818 5817 5816 5814 5813 5812 5811 5810 5808 5806 5805 5804 5803 5801 5800 5798 5797 5797 5796 5796 5796 5796 5796 5796 5797 5798 5798 5800 5801 5802 5804 5805 5807 5808 5809 5810 5811 5813 5813 5814 5815